Regional Weather Roundup
Issued by NWS Cleveland, OH

Home | Current Version | Previous Version | Text Only | Print | Product List | Glossary Off
Versions: 1 2 3 4 5 6 7 8 9 10 11 12 13 14 15 16 17 18 19 20 21 22 23 24 25 26 27 28 29 30 31 32 33 34 35 36 37 38 39 40 41 42 43 44 45 46 47 48 49 50

000
ASUS41 KCLE 220200
RWRCLE
OHIO REGIONAL WEATHER ROUNDUP
NATIONAL WEATHER SERVICE WILMINGTON, OH
1000 PM EDT SUN SEP 21 2014

NOTE: "FAIR" INDICATES FEW OR NO CLOUDS BELOW 12,000 FEET WITH NO
SIGNIFICANT WEATHER AND/OR OBSTRUCTIONS TO VISIBILITY.

OHZ001>008-015>018-024>027-034-035-043-044-220300-
   NORTHWEST OHIO

CITY           SKY/WX    TMP DP  RH WIND       PRES   REMARKS
DEFIANCE       CLOUDY   N/A N/A N/A NW7       30.00R
FINDLAY        CLOUDY    57  48  72 N10       29.97R
TOLEDO EXPRESS CLOUDY    55  48  77 NW8       29.97R
TOLEDO METCALF CLOUDY    54  47  77 NW13G23   29.98R
LIMA           CLOUDY    58  51  78 NW13      29.99R
$$

OHZ009>014-019>023-028>033-038-089-220300-
   NORTHEAST OHIO

CITY           SKY/WX    TMP DP  RH WIND       PRES   REMARKS
CLE-HOPKINS    CLOUDY    56  50  80 N23G30    29.91R
CLE-LAKEFRONT  CLOUDY    58  50  75 NW23G33   29.88R
CUY CO. ARPT   CLOUDY    57  52  82 NW15G25   29.88R
LORAIN-ELYRIA  CLOUDY    59  51  75 N12       29.92R
ASHTABULA      CLOUDY    55  51  86 NW8G21    29.84R
AKRON-CANTON   LGT RAIN  57  53  86 NW8       29.88R FOG
WOOSTER        NOT AVBL
MANSFIELD      CLOUDY    55  53  93 NW13G20   29.93R
YOUNGSTOWN     CLOUDY    56  53  90 NW10G20   29.85R
$$

OHZ042-051>053-060>062-070>072-077>081-220300-
  SOUTHWEST OHIO

CITY           SKY/WX    TMP DP  RH WIND       PRES   REMARKS
CINC-COVINGTON CLEAR     62  45  53 NW18G30   30.02R
CINC-LUNKEN    CLEAR     62  47  57 N12G17    30.03R
HAMILTON       CLEAR     60  49  66 NW12      30.03R
DAYTON         NOT AVBL
WRIGHT-PAT AFB PTCLDY    59  48  66 NW13G24   30.00R
DAYTON GENERAL CLEAR     58  49  72 NW8       30.01R
WILMINGTON     PTCLDY    59  47  64 NW12      29.99R
$$

OHZ036-037-039>041-045>050-054>059-063>069-073>076-082>088-220300-
  CENTRAL AND SOUTHEAST OHIO

CITY           SKY/WX    TMP DP  RH WIND       PRES   REMARKS
COLUMBUS       MOCLDY    61  50  67 NW13      29.94R
OSU AIRPORT    CLOUDY    59  50  72 NW14G28   29.96R
BOLTON FIELD   NOT AVBL
RICKENBACK AFB NOT AVBL
NEWARK         CLEAR     59  50  72 NW12G24   29.94R
MARION         RAIN      55  53  93 N21G28    29.96R FOG
LANCASTER      PTCLDY    60  50  69 NW8       29.95R
ZANESVILLE     CLEAR     60  48  64 W10G18    29.92R
NEW PHILLY     PTCLDY    61  50  67 W6        29.89R
$$


USA.gov is the U.S. government's official web portal to all federal, state and local government web resources and services.